AFR56K LOWI-LFMN

Flight info

Callsign AFR56K
Flight time N/A
Altitude 19000
Route BRENO M726 NAXAV/N0457F350 DCT RENTA DCT ATPED DCT LUSIL DCT EVANO DCT ENOBA Z185 ASBOP/N0401F190 Z185 BORDI
Aircraft A320/M-SDE3FGHIRWY/LB1

Departure

Time 2026-05-05 16:29
Airport Innsbruck Airport (LOWI)

Arrival

Time N/A
Airport Nice-Côte d'Azur Airport (LFMN)
Time Latitude Longitude Altitude Speed Heading
2026-05-05 16:11 47.25816 11.34989 1907 ft 0 kts 171°
2026-05-05 16:23 47.25860 11.34992 1908 ft 4 kts 212°
2026-05-05 16:23 47.25874 11.35014 1907 ft 1 kts 261°
2026-05-05 16:23 47.25874 11.35015 1907 ft 0 kts 261°
2026-05-05 16:25 47.25863 11.34913 1898 ft 19 kts 262°
2026-05-05 16:25 47.25837 11.34661 1898 ft 31 kts 262°
2026-05-05 16:26 47.25773 11.34078 1899 ft 21 kts 266°
2026-05-05 16:26 47.25876 11.33739 1901 ft 13 kts 311°
2026-05-05 16:27 47.25932 11.33668 1896 ft 6 kts 297°
2026-05-05 16:27 47.25929 11.33549 1908 ft 20 kts 262°
2026-05-05 16:27 47.25909 11.33354 1906 ft 18 kts 258°
2026-05-05 16:27 47.25847 11.33204 1901 ft 16 kts 242°
2026-05-05 16:28 47.25858 11.33075 1907 ft 13 kts 352°
2026-05-05 16:28 47.25884 11.33127 1906 ft 0 kts 82°
2026-05-05 16:28 47.25902 11.33309 1906 ft 54 kts 81°
2026-05-05 16:28 47.25996 11.34195 1898 ft 118 kts 81°
2026-05-05 16:29 47.26139 11.35606 2014 ft 157 kts 85°
2026-05-05 16:29 47.26293 11.37195 2733 ft 159 kts 86°
2026-05-05 16:29 47.26464 11.38815 3490 ft 161 kts 87°
2026-05-05 16:29 47.26628 11.40489 3977 ft 169 kts 87°
2026-05-05 16:30 47.26797 11.42247 4453 ft 177 kts 83°
2026-05-05 16:30 47.26987 11.44047 4990 ft 179 kts 78°
2026-05-05 16:30 47.27400 11.45784 5525 ft 181 kts 69°
2026-05-05 16:30 47.27862 11.47512 6077 ft 181 kts 67°
2026-05-05 16:31 47.28349 11.49225 6601 ft 182 kts 66°
2026-05-05 16:31 47.28847 11.50958 7103 ft 185 kts 66°
2026-05-05 16:31 47.29352 11.52724 7588 ft 188 kts 66°
2026-05-05 16:31 47.29863 11.54508 8071 ft 190 kts 66°
2026-05-05 16:32 47.30372 11.56296 8523 ft 193 kts 67°
2026-05-05 16:32 47.30894 11.58134 8999 ft 196 kts 67°
2026-05-05 16:32 47.31422 11.59991 9479 ft 197 kts 68°
2026-05-05 16:32 47.31654 11.61970 9916 ft 198 kts 100°
2026-05-05 16:33 47.31105 11.63785 10378 ft 196 kts 136°
2026-05-05 16:33 47.29972 11.64800 10839 ft 191 kts 169°
2026-05-05 16:33 47.28671 11.64728 11313 ft 188 kts 201°
2026-05-05 16:33 47.27616 11.63642 11778 ft 187 kts 231°
2026-05-05 16:34 47.27091 11.61887 12245 ft 190 kts 252°
2026-05-05 16:34 47.26754 11.60040 12762 ft 189 kts 253°
2026-05-05 16:34 47.26406 11.58167 13153 ft 190 kts 251°
2026-05-05 16:34 47.26055 11.56293 13596 ft 190 kts 251°
2026-05-05 16:35 47.25701 11.54416 14003 ft 190 kts 252°
2026-05-05 16:35 47.25344 11.52521 14427 ft 193 kts 251°
2026-05-05 16:35 47.24983 11.50613 14892 ft 193 kts 251°
2026-05-05 16:35 47.24621 11.48705 15334 ft 194 kts 251°
2026-05-05 16:36 47.24257 11.46793 15735 ft 194 kts 251°
2026-05-05 16:36 47.23889 11.44867 16141 ft 195 kts 251°
2026-05-05 16:36 47.23522 11.42940 16538 ft 197 kts 251°
2026-05-05 16:36 47.22893 11.41185 16925 ft 195 kts 225°
2026-05-05 16:37 47.21737 11.40121 17205 ft 205 kts 198°
2026-05-05 16:37 47.20260 11.39873 17328 ft 222 kts 187°
2026-05-05 16:37 47.18656 11.39715 17444 ft 242 kts 187°
2026-05-05 16:37 47.16926 11.39541 17575 ft 263 kts 187°
2026-05-05 16:38 47.15025 11.39346 17708 ft 283 kts 187°
2026-05-05 16:38 47.12985 11.39142 17835 ft 304 kts 187°
2026-05-05 16:38 47.10817 11.38926 17964 ft 321 kts 186°
2026-05-05 16:38 47.08530 11.38699 18094 ft 338 kts 186°
2026-05-05 16:39 47.06124 11.38457 18221 ft 355 kts 186°
2026-05-05 16:39 47.03608 11.38203 18351 ft 370 kts 186°
2026-05-05 16:39 47.00982 11.37938 18476 ft 385 kts 186°
2026-05-05 16:39 46.98276 11.37671 18756 ft 393 kts 186°
2026-05-05 16:40 46.95527 11.37399 18885 ft 400 kts 186°
2026-05-05 16:40 46.92706 11.37103 18918 ft 413 kts 187°
2026-05-05 16:40 46.89796 11.36784 18919 ft 424 kts 186°
2026-05-05 16:40 46.86839 11.36456 18931 ft 427 kts 186°
2026-05-05 16:41 46.83869 11.36124 18936 ft 428 kts 186°
2026-05-05 16:41 46.80905 11.35797 18942 ft 428 kts 186°
2026-05-05 16:41 46.77928 11.35473 18952 ft 428 kts 186°
2026-05-05 16:41 46.74962 11.35158 18962 ft 429 kts 186°
2026-05-05 16:42 46.71980 11.34851 18964 ft 428 kts 186°
2026-05-05 16:42 46.69045 11.34551 18974 ft 428 kts 186°
2026-05-05 16:42 46.66075 11.34245 18986 ft 428 kts 186°
2026-05-05 16:42 46.63098 11.33938 18984 ft 428 kts 186°
2026-05-05 16:43 46.60120 11.33632 18987 ft 428 kts 186°
2026-05-05 16:43 46.57155 11.33329 18987 ft 428 kts 186°
2026-05-05 16:43 46.54181 11.33021 18989 ft 428 kts 188°
2026-05-05 16:43 46.51273 11.32226 18985 ft 424 kts 199°
2026-05-05 16:44 46.48567 11.30569 18988 ft 421 kts 211°
2026-05-05 16:44 46.46181 11.28134 18984 ft 419 kts 222°
2026-05-05 16:44 46.44201 11.25040 18984 ft 419 kts 233°
2026-05-05 16:44 46.42691 11.21428 18980 ft 419 kts 243°
2026-05-05 16:45 46.41397 11.17655 18987 ft 418 kts 243°
2026-05-05 16:45 46.40096 11.13877 18984 ft 418 kts 243°
2026-05-05 16:45 46.38795 11.10105 18987 ft 418 kts 243°
2026-05-05 16:45 46.37492 11.06335 18993 ft 418 kts 243°
2026-05-05 16:46 46.36189 11.02569 18988 ft 418 kts 242°
2026-05-05 16:46 46.34885 10.98806 18992 ft 418 kts 243°
2026-05-05 16:46 46.33594 10.95092 18993 ft 418 kts 242°
2026-05-05 16:46 46.32285 10.91329 18997 ft 418 kts 242°
2026-05-05 16:47 46.30980 10.87577 19002 ft 417 kts 242°
2026-05-05 16:47 46.29671 10.83826 19002 ft 417 kts 242°
2026-05-05 16:47 46.28372 10.80094 19001 ft 416 kts 243°
2026-05-05 16:47 46.27071 10.76353 19002 ft 415 kts 242°
2026-05-05 16:48 46.25774 10.72622 19005 ft 415 kts 243°
2026-05-05 16:48 46.24476 10.68886 19001 ft 416 kts 243°
2026-05-05 16:48 46.23181 10.65161 19002 ft 415 kts 243°
2026-05-05 16:48 46.21884 10.61441 19001 ft 415 kts 242°
2026-05-05 16:49 46.20578 10.57716 19005 ft 415 kts 242°
2026-05-05 16:49 46.19274 10.54001 19001 ft 414 kts 242°
2026-05-05 16:49 46.17971 10.50290 19011 ft 415 kts 242°
2026-05-05 16:49 46.16663 10.46576 19010 ft 415 kts 242°
2026-05-05 16:50 46.15356 10.42869 19006 ft 414 kts 242°
2026-05-05 16:50 46.14051 10.39155 19010 ft 415 kts 242°
2026-05-05 16:50 46.12763 10.35490 19013 ft 414 kts 242°
2026-05-05 16:50 46.11457 10.31785 19013 ft 414 kts 242°
2026-05-05 16:51 46.10148 10.28093 19011 ft 414 kts 242°
2026-05-05 16:51 46.08836 10.24408 18999 ft 413 kts 242°
2026-05-05 16:51 46.07526 10.20734 18994 ft 413 kts 242°
2026-05-05 16:51 46.06215 10.17053 18992 ft 412 kts 242°
2026-05-05 16:52 46.04908 10.13382 18996 ft 412 kts 242°
2026-05-05 16:52 46.03405 10.09882 18991 ft 411 kts 234°
2026-05-05 16:52 46.01719 10.06563 18983 ft 410 kts 234°
2026-05-05 16:52 46.00032 10.03254 18970 ft 410 kts 233°
2026-05-05 16:53 45.98344 9.99957 18968 ft 410 kts 233°
2026-05-05 16:53 45.96643 9.96638 18980 ft 411 kts 233°
2026-05-05 16:53 45.94950 9.93330 18989 ft 411 kts 233°
2026-05-05 16:53 45.93257 9.90022 18965 ft 411 kts 233°
2026-05-05 16:54 45.91562 9.86710 18988 ft 412 kts 233°
2026-05-05 16:54 45.89861 9.83391 18991 ft 412 kts 234°
2026-05-05 16:54 45.88167 9.80085 18993 ft 412 kts 234°
2026-05-05 16:54 45.86465 9.76769 18995 ft 412 kts 233°
2026-05-05 16:55 45.84764 9.73456 19000 ft 412 kts 233°
2026-05-05 16:55 45.83636 9.71264 19003 ft 411 kts 233°
2026-05-05 16:55 45.81936 9.67971 19005 ft 411 kts 233°
2026-05-05 16:55 45.80231 9.64673 19007 ft 411 kts 233°
2026-05-05 16:56 45.77978 9.60316 19006 ft 410 kts 233°
2026-05-05 16:56 45.76281 9.57035 19008 ft 410 kts 233°
2026-05-05 16:56 45.75132 9.54816 19009 ft 410 kts 233°
2026-05-05 16:56 45.73434 9.51538 19004 ft 410 kts 233°
2026-05-05 16:57 45.71730 9.48255 19003 ft 410 kts 233°
2026-05-05 16:57 45.70026 9.44983 18999 ft 410 kts 233°
2026-05-05 16:57 45.68320 9.41712 18997 ft 410 kts 233°
2026-05-05 16:57 45.66618 9.38448 18993 ft 410 kts 233°
2026-05-05 16:58 45.64912 9.35176 18992 ft 410 kts 233°
2026-05-05 16:58 45.63229 9.31948 18989 ft 410 kts 233°
2026-05-05 16:58 45.61499 9.28637 18987 ft 410 kts 233°
2026-05-05 16:58 45.59813 9.25418 18984 ft 410 kts 233°
2026-05-05 16:59 45.58102 9.22155 18983 ft 411 kts 233°
2026-05-05 16:59 45.56388 9.18885 18982 ft 410 kts 233°
2026-05-05 16:59 45.54681 9.15634 18970 ft 410 kts 233°